Weather History for Aitkin, MN

Change the Weather History Date:

Monday, November 19, 2012

  Actual Average Record
Temperature  
Mean Temperature 44 °F -  
Max Temperature 55 °F 35 °F 55 °F (2012)
Min Temperature 33 °F 21 °F 0 °F (1969)
Degree Days  
Heating Degree Days 21    
Moisture  
Dew Point 32 °F    
Average Humidity 61    
Maximum Humidity 81    
Minimum Humidity 44    
Precipitation  
Precipitation 0.00 in - - ()
Sea Level Pressure  
Sea Level Pressure 30.01 in    
Wind  
Wind Speed 6 mph (South)    
Max Wind Speed 13 mph    
Max Gust Speed 17 mph    
Visibility 10 miles    
Events Thunderstorm    
Averages and records for this station are not official NWS values.
T = Trace of Precipitation, MM = Missing Value Source: NWS Daily Summary

Daily Weather History Graph

Daily Weather History Graph

Search for Another Location

Airport:

Trip Planner

Search our weather history database for the weather conditions in past years. The results will help you decide how hot, cold, wet, or windy it might be!

Date:

Astronomy

Nov. 19, 2012 Rise Set
Actual Time 7:23 AM CST 4:36 PM CST
Civil Twilight 6:49 AM CST 5:10 PM CST
Nautical Twilight 6:12 AM CST 5:47 PM CST
Astronomical Twilight 5:37 AM CST 6:22 PM CST
Moon 12:18 PM CST (11/19) 11:14 PM CST (11/19)
Length of Visible Light 10h 20m
Length of Day
9h 13m
Waxing Crescent, 41% of the Moon is Illuminated
Nov 19
Waxing Crescent
Nov 20
First Quarter
Nov 28
Full
Dec 6
Last Quarter
Dec 13
New

Hourly Weather History & Observations

Time (CST) Temp. Windchill Dew Point Humidity Pressure Visibility Wind Dir Wind Speed Gust Speed Precip Events Conditions
12:12 AM 46.4 °F 43.5 °F 32.0 °F 57% 30.02 in 10.0 mi SSE 5.8 mph - N/A   Clear
12:52 AM 46.4 °F 42.9 °F 32.0 °F 57% 30.02 in 10.0 mi South 6.9 mph - N/A   Clear
1:12 AM 46.4 °F 41.9 °F 32.0 °F 57% 30.01 in 10.0 mi SSE 9.2 mph - N/A   Clear
1:33 AM 46.4 °F 41.9 °F 32.0 °F 57% 30.01 in 10.0 mi SSE 9.2 mph - N/A   Clear
1:53 AM 46.4 °F 42.4 °F 32.0 °F 57% 30.01 in 10.0 mi SSE 8.1 mph - N/A   Clear
2:12 AM 44.6 °F 41.4 °F 30.2 °F 57% 30.01 in 10.0 mi SSE 5.8 mph - N/A   Clear
2:33 AM 44.6 °F 40.7 °F 30.2 °F 57% 30.01 in 10.0 mi SSE 6.9 mph - N/A   Clear
2:53 AM 44.6 °F 41.4 °F 30.2 °F 57% 30.00 in 10.0 mi SSE 5.8 mph - N/A   Scattered Clouds
3:12 AM 44.6 °F 39.7 °F 30.2 °F 57% 30.00 in 10.0 mi SSE 9.2 mph - N/A   Scattered Clouds
3:33 AM 44.6 °F 40.7 °F 30.2 °F 57% 30.00 in 10.0 mi SSE 6.9 mph - N/A   Clear
3:53 AM 42.8 °F 39.3 °F 30.2 °F 61% 30.00 in 10.0 mi SSE 5.8 mph - N/A   Clear
4:12 AM 42.8 °F 39.3 °F 30.2 °F 61% 30.00 in 10.0 mi SSE 5.8 mph - N/A   Clear
4:33 AM 42.8 °F 39.3 °F 30.2 °F 61% 30.00 in 10.0 mi SSE 5.8 mph - N/A   Clear
4:53 AM 42.8 °F 39.3 °F 30.2 °F 61% 29.99 in 10.0 mi SSE 5.8 mph - N/A   Clear
5:12 AM 42.8 °F 39.3 °F 30.2 °F 61% 29.99 in 10.0 mi South 5.8 mph - N/A   Clear
5:33 AM 41.0 °F 37.1 °F 30.2 °F 65% 29.99 in 10.0 mi South 5.8 mph - N/A   Clear
5:53 AM 42.8 °F 40.1 °F 30.2 °F 61% 30.00 in 10.0 mi South 4.6 mph - N/A   Mostly Cloudy
6:12 AM 44.6 °F 40.2 °F 32.0 °F 61% 29.99 in 10.0 mi SSE 8.1 mph - N/A   Overcast
6:33 AM 44.6 °F 39.7 °F 32.0 °F 61% 29.99 in 10.0 mi SSE 9.2 mph - N/A   Overcast
6:53 AM 44.6 °F 39.7 °F 32.0 °F 61% 29.99 in 10.0 mi SSE 9.2 mph - N/A   Overcast
7:12 AM 44.6 °F 39.7 °F 32.0 °F 61% 29.99 in 10.0 mi SSE 9.2 mph - N/A   Overcast
7:33 AM 44.6 °F 39.7 °F 32.0 °F 61% 29.99 in 10.0 mi SSE 9.2 mph - N/A   Overcast
7:53 AM 44.6 °F 40.2 °F 32.0 °F 61% 29.99 in 10.0 mi SSE 8.1 mph - N/A   Scattered Clouds
8:12 AM 44.6 °F 40.2 °F 32.0 °F 61% 29.99 in 10.0 mi South 8.1 mph - N/A Thunderstorm Scattered Clouds
8:53 AM 46.4 °F 41.1 °F 33.8 °F 62% 29.99 in 10.0 mi South 11.5 mph - N/A   Scattered Clouds
9:12 AM 48.2 °F - 33.8 °F 58% 29.99 in 10.0 mi South 12.7 mph 17.3 mph N/A   Mostly Cloudy
9:53 AM 48.2 °F - 33.8 °F 58% 30.00 in 10.0 mi South 9.2 mph - N/A   Overcast
10:12 AM 50.0 °F - 33.8 °F 54% 30.00 in 10.0 mi SSW 9.2 mph - N/A   Overcast
10:33 AM 51.8 °F - 33.8 °F 50% 30.00 in 10.0 mi South 9.2 mph - N/A   Overcast
10:53 AM 51.8 °F - 33.8 °F 50% 30.00 in 10.0 mi SSE 8.1 mph - N/A   Overcast
11:12 AM 51.8 °F - 33.8 °F 50% 29.99 in 10.0 mi South 5.8 mph - N/A   Overcast
11:33 AM 51.8 °F - 33.8 °F 50% 29.99 in 10.0 mi South 5.8 mph - N/A   Overcast
11:52 AM 51.8 °F - 33.8 °F 50% 29.99 in 10.0 mi South 6.9 mph - N/A   Overcast
12:13 PM 53.6 °F - 33.8 °F 47% 29.98 in 10.0 mi SSE 4.6 mph - N/A   Mostly Cloudy
12:33 PM 53.6 °F - 33.8 °F 47% 29.98 in 10.0 mi SSE 6.9 mph - N/A   Scattered Clouds
12:52 PM 53.6 °F - 33.8 °F 47% 29.97 in 10.0 mi SSE 5.8 mph - N/A   Clear
1:13 PM 55.4 °F - 33.8 °F 44% 29.97 in 10.0 mi SSE 8.1 mph - N/A   Clear
1:33 PM 55.4 °F - 33.8 °F 44% 29.97 in 10.0 mi SSE 8.1 mph - N/A   Clear
1:52 PM 55.4 °F - 35.6 °F 47% 29.97 in 10.0 mi South 6.9 mph - N/A   Clear
2:13 PM 55.4 °F - 35.6 °F 47% 29.98 in 10.0 mi South 8.1 mph - N/A   Clear
2:32 PM 55.4 °F - 35.6 °F 47% 29.98 in 10.0 mi SSW 6.9 mph - N/A   Clear
2:53 PM 55.4 °F - 35.6 °F 47% 29.98 in 10.0 mi South 9.2 mph - N/A   Clear
3:12 PM 55.4 °F - 35.6 °F 47% 29.98 in 10.0 mi South 9.2 mph - N/A   Clear
3:32 PM 55.4 °F - 35.6 °F 47% 29.99 in 10.0 mi SSE 3.5 mph - N/A   Clear
3:53 PM 53.6 °F - 35.6 °F 51% 30.00 in 10.0 mi South 4.6 mph - N/A   Clear
4:12 PM 51.8 °F - 35.6 °F 54% 30.00 in 10.0 mi SSE 3.5 mph - N/A   Clear
4:32 PM 50.0 °F - 33.8 °F 54% 30.00 in 10.0 mi Calm Calm - N/A   Clear
4:53 PM 46.4 °F - 33.8 °F 62% 30.01 in 10.0 mi Calm Calm - N/A   Clear
5:12 PM 44.6 °F - 33.8 °F 66% 30.01 in 10.0 mi Calm Calm - N/A   Clear
5:32 PM 44.6 °F - 33.8 °F 66% 30.01 in 10.0 mi Calm Calm - N/A   Clear
5:53 PM 42.8 °F - 33.8 °F 70% 30.02 in 10.0 mi Calm Calm - N/A   Clear
6:32 PM 37.4 °F - 30.2 °F 75% 30.02 in 10.0 mi Calm Calm - N/A   Clear
6:53 PM 35.6 °F - 28.4 °F 75% 30.03 in 10.0 mi Calm Calm - N/A   Clear
7:12 PM 39.2 °F 35.9 °F 32.0 °F 75% 30.04 in 10.0 mi WNW 4.6 mph - N/A   Clear
7:32 PM 44.6 °F 43.1 °F 35.6 °F 71% 30.04 in 10.0 mi NW 3.5 mph - N/A   Clear
7:53 PM 39.2 °F 37.0 °F 32.0 °F 75% 30.04 in 10.0 mi NW 3.5 mph - N/A   Clear
8:12 PM 41.0 °F 38.0 °F 33.8 °F 76% 30.03 in 10.0 mi NW 4.6 mph - N/A   Clear
8:32 PM 39.2 °F - 32.0 °F 75% 30.04 in 10.0 mi Calm Calm - N/A   Clear
8:53 PM 35.6 °F - 30.2 °F 81% 30.05 in 10.0 mi Calm Calm - N/A   Clear
9:12 PM 33.8 °F - 26.6 °F 75% 30.06 in 10.0 mi Calm Calm - N/A   Clear
9:32 PM 37.4 °F - 30.2 °F 75% 30.07 in 10.0 mi Calm Calm - N/A   Clear
9:53 PM 33.8 °F - 26.6 °F 75% 30.07 in 7.0 mi Calm Calm - N/A   Clear
10:12 PM 33.8 °F 30.8 °F 28.4 °F 81% 30.07 in 10.0 mi NW 3.5 mph - N/A   Clear
10:32 PM 37.4 °F 34.9 °F 30.2 °F 75% 30.07 in 10.0 mi NW 3.5 mph - N/A   Clear
10:53 PM 35.6 °F 31.7 °F 30.2 °F 81% 30.07 in 10.0 mi NW 4.6 mph - N/A   Clear
11:12 PM 35.6 °F 30.7 °F 30.2 °F 81% 30.07 in 10.0 mi NW 5.8 mph - N/A   Clear
11:33 PM 35.6 °F - 28.4 °F 75% 30.08 in 7.0 mi Calm Calm - N/A   Clear
11:52 PM 33.8 °F - 28.4 °F 81% 30.08 in 7.0 mi Calm Calm - N/A   Clear